FW3211 Weather Reports


Display with metric or nautical units.
time (UTC)temp
F
wind
direction
speed
MPH
gust
MPH
rain 1hr
in
rain 24hr
in
rain mn
in
humidity
%
barometer
mb
20260831172459 73 242 2.0 5.0 0.00 0.00 0.00 74 1017.6
20260831171958 73 187 2.0 5.0 0.00 0.00 0.00 75 1017.6
20260831171748 74 148 1.0 4.0 0.00 0.00 0.00 75 1017.6
20260831170958 74 218 2.0 6.0 0.00 0.00 0.00 75 1017.6
20260831170733 74 105 2.0 6.0 0.00 0.00 0.00 75 1017.6
20260831170037 74 185 1.0 3.0 0.00 0.00 0.00 76 1017.7
20260831170019 74 228 1.0 4.0 0.00 0.00 0.00 76 1017.7
20260831165237 74 185 2.0 7.0 0.00 0.00 0.00 77 1017.8
20260831164453 74 184 2.0 7.0 0.00 0.00 0.00 77 1017.8
20260831163952 74 216 2.0 4.0 0.00 0.00 0.00 77 1017.7
20260831163452 74 131 1.0 4.0 0.00 0.00 0.00 77 1017.7
20260831162952 74 171 1.0 4.0 0.00 0.00 0.00 77 1017.7
20260831162449 74 170 2.0 5.0 0.00 0.00 0.00 77 1017.8
20260831162311 74 178 2.0 5.0 0.00 0.00 0.00 78 1017.8
20260831162301 74 132 2.0 5.0 0.00 0.00 0.00 77 1017.7
20260831160949 74 189 2.0 4.0 0.00 0.00 0.00 78 1017.7
20260831160447 74 163 2.0 4.0 0.00 0.00 0.00 77 1017.8
20260831155948 74 181 2.0 4.0 0.00 0.00 0.00 77 1017.7
20260831155446 74 158 1.0 3.0 0.00 0.00 0.00 77 1017.8
20260831154948 74 150 1.0 4.0 0.00 0.00 0.00 77 1017.8
20260831154731 74 192 1.0 4.0 0.00 0.00 0.00 77 1017.9
20260831153946 75 223 1.0 2.0 0.00 0.00 0.00 78 1017.8
20260831153444 75 223 1.0 4.0 0.00 0.00 0.00 78 1017.9
20260831152945 75 223 1.0 4.0 0.00 0.00 0.00 78 1018.0
20260831152448 75 145 1.0 3.0 0.00 0.00 0.00 78 1018.0
20260831151939 75 137 1.0 4.0 0.00 0.00 0.00 78 1018.0
20260831151723 75 128 2.0 4.0 0.00 0.00 0.00 78 1018.0
20260831151225 75 246 2.0 5.0 0.00 0.00 0.00 77 1018.0
20260831150435 75 195 2.0 5.0 0.00 0.00 0.00 77 1018.1
20260831145934 75 189 2.0 4.0 0.00 0.00 0.00 77 1018.1
20260831145432 75 228 2.0 6.0 0.00 0.00 0.00 77 1018.2
20260831144935 76 157 2.0 6.0 0.00 0.00 0.00 77 1018.2
20260831144714 76 160 2.0 7.0 0.00 0.00 0.00 77 1018.2
20260831143933 76 185 2.0 7.0 0.00 0.00 0.00 77 1018.2
20260831143434 76 159 2.0 7.0 0.00 0.00 0.00 78 1018.1
20260831143221 76 160 3.0 7.0 0.00 0.00 0.00 78 1018.2
20260831142433 76 154 2.0 7.0 0.00 0.00 0.00 78 1018.1
20260831141933 76 168 3.0 7.0 0.00 0.00 0.00 78 1018.0
20260831141433 76 74 3.0 7.0 0.00 0.00 0.00 77 1018.0
20260831140933 76 115 2.0 6.0 0.00 0.00 0.00 77 1018.0
20260831140433 77 185 2.0 4.0 0.00 0.00 0.00 76 1018.1
20260831140218 76 183 2.0 6.0 0.00 0.00 0.00 77 1018.1
20260831135433 76 157 3.0 9.0 0.00 0.00 0.00 77 1018.1
20260831135212 76 98 3.0 9.0 0.00 0.00 0.00 76 1018.1
20260831134432 77 145 3.0 10.0 0.00 0.00 0.00 76 1018.1
20260831133934 77 108 4.0 10.0 0.00 0.00 0.00 75 1018.1
20260831133434 78 110 3.0 9.0 0.00 0.00 0.00 74 1018.1
20260831132934 78 170 3.0 6.0 0.00 0.00 0.00 73 1018.1
20260831132436 78 160 3.0 7.0 0.00 0.00 0.00 74 1018.1
20260831132254 78 109 2.0 6.0 0.00 0.00 0.00 73 1018.0
20260831132248 78 142 3.0 7.0 0.00 0.00 0.00 73 1018.0
20260831130940 78 129 2.0 7.0 0.00 0.00 0.00 73 1018.1
20260831130433 78 145 2.0 7.0 0.00 0.00 0.00 73 1018.1
20260831125933 78 171 3.0 6.0 0.00 0.00 0.00 73 1018.1
20260831125432 78 177 3.0 6.0 0.00 0.00 0.00 72 1018.1
20260831125217 78 135 3.0 9.0 0.00 0.00 0.00 74 1018.1
20260831124433 77 194 3.0 9.0 0.00 0.00 0.00 73 1018.1
20260831123931 78 160 3.0 9.0 0.00 0.00 0.00 72 1018.1
20260831123431 78 189 3.0 9.0 0.00 0.00 0.00 72 1018.1
20260831122925 77 126 3.0 6.0 0.00 0.00 0.00 73 1018.1
20260831122420 77 167 3.0 9.0 0.00 0.00 0.00 74 1018.2
20260831121920 77 130 3.0 9.0 0.00 0.00 0.00 74 1018.2
20260831121416 77 169 3.0 8.0 0.00 0.00 0.00 75 1018.2
20260831120924 77 151 4.0 8.0 0.00 0.00 0.00 75 1018.2
20260831120414 77 183 4.0 10.0 0.00 0.00 0.00 75 1018.2
20260831115911 77 138 4.0 10.0 0.00 0.00 0.00 75 1018.3
20260831115407 77 143 4.0 10.0 0.00 0.00 0.00 75 1018.3
20260831114907 77 150 4.0 10.0 0.00 0.00 0.00 75 1018.3
20260831114407 77 143 4.0 10.0 0.00 0.00 0.00 76 1018.3
20260831114149 77 156 5.0 11.0 0.00 0.00 0.00 75 1018.3
20260831113405 77 119 4.0 11.0 0.00 0.00 0.00 75 1018.4
20260831112906 77 200 3.0 10.0 0.00 0.00 0.00 74 1018.4
20260831112408 77 95 3.0 9.0 0.00 0.00 0.00 75 1018.4
20260831111904 77 119 3.0 9.0 0.00 0.00 0.00 75 1018.5
20260831111404 77 122 4.0 8.0 0.00 0.00 0.00 75 1018.5
20260831110906 77 182 3.0 8.0 0.00 0.00 0.00 74 1018.4
20260831110433 77 219 3.0 7.0 0.00 0.00 0.00 74 1018.4
20260831105900 77 155 3.0 7.0 0.00 0.00 0.00 74 1018.4
20260831105726 78 181 3.0 7.0 0.00 0.00 0.00 73 1018.5
20260831105428 78 242 3.0 7.0 0.00 0.00 0.00 74 1018.5
20260831104358 78 124 3.0 8.0 0.00 0.00 0.00 73 1018.5
20260831103856 78 128 4.0 8.0 0.00 0.00 0.00 74 1018.5
20260831103357 78 149 3.0 7.0 0.00 0.00 0.00 74 1018.5
20260831102857 78 149 3.0 7.0 0.00 0.00 0.00 74 1018.5
20260831102357 77 170 3.0 7.0 0.00 0.00 0.00 74 1018.4
20260831101852 78 169 4.0 8.0 0.00 0.00 0.00 74 1018.4
20260831101354 77 101 4.0 8.0 0.00 0.00 0.00 74 1018.5
20260831100853 77 118 4.0 9.0 0.00 0.00 0.00 73 1018.5
20260831100350 78 87 3.0 9.0 0.00 0.00 0.00 71 1018.5
20260831095852 78 136 3.0 8.0 0.00 0.00 0.00 71 1018.5
20260831095354 79 111 2.0 7.0 0.00 0.00 0.00 71 1018.4
20260831094851 79 172 2.0 7.0 0.00 0.00 0.00 71 1018.5
20260831094632 79 239 3.0 7.0 0.00 0.00 0.00 70 1018.4
20260831093851 78 123 3.0 7.0 0.00 0.00 0.00 70 1018.5
20260831093351 78 139 3.0 8.0 0.00 0.00 0.00 70 1018.4
20260831092854 78 90 2.0 8.0 0.00 0.00 0.00 69 1018.6
20260831092350 78 197 2.0 5.0 0.00 0.00 0.00 70 1018.5
20260831091851 78 159 2.0 6.0 0.00 0.00 0.00 70 1018.5
20260831091353 77 184 2.0 6.0 0.00 0.00 0.00 70 1018.5
20260831090849 77 189 2.0 6.0 0.00 0.00 0.00 70 1018.5
20260831090349 78 130 2.0 6.0 0.00 0.00 0.00 69 1018.5
20260831085847 77 182 2.0 5.0 0.00 0.00 0.00 68 1018.5
20260831085638 77 160 2.0 6.0 0.00 0.00 0.00 68 1018.5
20260831084843 77 110 2.0 6.0 0.00 0.00 0.00 68 1018.5
20260831084636 77 101 2.0 4.0 0.00 0.00 0.00 69 1018.6
20260831084134 77 138 2.0 5.0 0.00 0.00 0.00 69 1018.6
20260831083344 76 163 2.0 6.0 0.00 0.00 0.00 71 1018.6
20260831082843 76 147 2.0 6.0 0.00 0.00 0.00 71 1018.6
20260831082342 76 122 2.0 5.0 0.00 0.00 0.00 71 1018.6
20260831081839 76 124 2.0 5.0 0.00 0.00 0.00 71 1018.5
20260831081336 76 154 2.0 5.0 0.00 0.00 0.00 70 1018.5
20260831080837 76 154 2.0 5.0 0.00 0.00 0.00 71 1018.5
20260831080336 76 141 2.0 4.0 0.00 0.00 0.00 71 1018.4
20260831075834 75 117 2.0 4.0 0.00 0.00 0.00 72 1018.4
20260831075332 75 104 2.0 4.0 0.00 0.00 0.00 72 1018.3
20260831074832 75 97 2.0 6.0 0.00 0.00 0.00 72 1018.3
20260831074333 75 151 2.0 6.0 0.00 0.00 0.00 72 1018.2
20260831074124 75 130 1.0 5.0 0.00 0.00 0.00 70 1018.1
20260831073334 75 130 1.0 3.0 0.00 0.00 0.00 71 1018.0
20260831072829 75 129 1.0 3.0 0.00 0.00 0.00 72 1018.0
20260831072320 75 129 2.0 3.0 0.00 0.00 0.00 73 1018.0
20260831071814 74 128 2.0 4.0 0.00 0.00 0.00 73 1018.0
20260831071306 75 129 1.0 4.0 0.00 0.00 0.00 72 1018.0
20260831071059 75 141 1.0 3.0 0.00 0.00 0.00 71 1018.0
20260831070305 74 139 1.0 3.0 0.00 0.00 0.00 71 1018.0
20260831065804 74 139 1.0 3.0 0.00 0.00 0.00 71 1018.0
20260831065306 74 113 1.0 3.0 0.00 0.00 0.00 71 1017.9
20260831064805 74 112 1.0 3.0 0.00 0.00 0.00 72 1017.9
20260831064306 73 112 1.0 3.0 0.00 0.00 0.00 71 1017.9
20260831063809 73 112 1.0 3.0 0.00 0.00 0.00 71 1017.9
20260831063310 73 112 1.0 3.0 0.00 0.00 0.00 72 1017.9
20260831062805 72 112 1.0 3.0 0.00 0.00 0.00 72 1017.9
20260831062307 72 335 1.0 2.0 0.00 0.00 0.00 72 1017.9
20260831061805 72 334 1.0 2.0 0.00 0.00 0.00 73 1017.9
20260831061606 71 326 1.0 2.0 0.00 0.00 0.00 74 1017.9
20260831060804 72 326 1.0 2.0 0.00 0.00 0.00 73 1017.9
20260831060307 72 314 1.0 2.0 0.00 0.00 0.00 72 1017.9
20260831060107 72 314 0.0 2.0 0.00 0.00 0.00 73 1017.9
20260831055606 72 314 1.0 2.0 0.00 0.00 0.00 72 1017.9
20260831055059 72 314 0.0 2.0 0.00 0.00 0.00 72 1017.9
20260831054303 72 314 0.0 2.0 0.00 0.00 0.00 71 1017.8
20260831053804 72 314 0.0 2.0 0.00 0.00 0.00 71 1017.8
20260831053304 71 314 0.0 1.0 0.00 0.00 0.00 71 1017.8
20260831052805 71 314 0.0 1.0 0.00 0.00 0.00 70 1017.7
20260831052610 70 314 0.0 1.0 0.00 0.00 0.00 70 1017.7
20260831051803 69 314 0.0 0.0 0.00 0.00 0.00 70 1017.7
20260831051545 69 314 0.0 2.0 0.00 0.00 0.00 71 1017.6
20260831050803 69 314 1.0 2.0 0.00 0.00 0.00 71 1017.6
20260831050312 68 314 1.0 2.0 0.00 0.00 0.00 70 1017.6
20260831045806 68 314 1.0 2.0 0.00 0.00 0.00 70 1017.5
20260831045306 68 314 1.0 2.0 0.00 0.00 0.00 70 1017.5
20260831044800 68 314 2.0 3.0 0.00 0.00 0.00 70 1017.4
20260831044546 68 314 2.0 3.0 0.00 0.00 0.00 70 1017.3
20260831043759 68 307 2.0 4.0 0.00 0.00 0.00 70 1017.3
20260831043256 68 307 2.0 4.0 0.00 0.00 0.00 70 1017.2
20260831042754 68 304 1.0 2.0 0.00 0.00 0.00 70 1017.2
20260831042255 68 304 1.0 2.0 0.00 0.00 0.00 70 1017.3
20260831042037 68 304 1.0 1.0 0.00 0.00 0.00 70 1017.3
20260831041252 68 304 1.0 2.0 0.00 0.00 0.00 70 1017.3
20260831040753 68 304 1.0 2.0 0.00 0.00 0.00 70 1017.3
20260831040250 68 304 2.0 3.0 0.00 0.00 0.00 71 1017.3
20260831035754 68 304 2.0 3.0 0.00 0.00 0.00 71 1017.3
20260831035254 69 304 1.0 2.0 0.00 0.00 0.00 72 1017.3
20260831034752 69 304 1.0 2.0 0.00 0.00 0.00 72 1017.4
20260831034249 69 304 1.0 2.0 0.00 0.00 0.00 72 1017.4
20260831033752 69 304 1.0 2.0 0.00 0.00 0.00 72 1017.4
20260831033249 69 304 1.0 2.0 0.00 0.00 0.00 71 1017.5
20260831032749 69 304 1.0 2.0 0.00 0.00 0.00 71 1017.5
20260831032246 69 304 1.0 2.0 0.00 0.00 0.00 71 1017.6
20260831031745 69 304 1.0 2.0 0.00 0.00 0.00 71 1017.6
20260831031245 69 304 1.0 3.0 0.00 0.00 0.00 71 1017.7
20260831030744 69 304 1.0 3.0 0.00 0.00 0.00 72 1017.6
20260831030247 69 304 1.0 2.0 0.00 0.00 0.00 72 1017.7
20260831025744 69 304 1.0 2.0 0.00 0.00 0.00 72 1017.7
20260831025243 69 304 1.0 2.0 0.00 0.00 0.00 72 1017.6
20260831024743 69 304 1.0 2.0 0.00 0.00 0.00 72 1017.6
20260831024242 69 304 1.0 2.0 0.00 0.00 0.00 72 1017.5
20260831023743 69 304 1.0 2.0 0.00 0.00 0.00 72 1017.5
20260831023245 69 304 1.0 2.0 0.00 0.00 0.00 73 1017.6
20260831022743 69 304 1.0 3.0 0.00 0.00 0.00 73 1017.6
20260831022243 69 304 2.0 3.0 0.00 0.00 0.00 73 1017.6
20260831021745 69 304 1.0 3.0 0.00 0.00 0.00 73 1017.7
20260831021624 69 304 2.0 2.0 0.00 0.00 0.00 73 1017.7
20260831021300 69 304 1.0 2.0 0.00 0.00 0.00 73 1017.7
20260831020238 69 304 1.0 3.0 0.00 0.00 0.00 73 1017.8
20260831015738 69 304 1.0 3.0 0.00 0.00 0.00 73 1017.8
20260831015239 69 304 1.0 2.0 0.00 0.00 0.00 73 1017.8
20260831014817 69 304 1.0 2.0 0.00 0.00 0.00 74 1017.9
20260831014758 69 304 1.0 2.0 0.00 0.00 0.00 74 1017.8
20260831013743 69 304 1.0 2.0 0.00 0.00 0.00 74 1017.9
20260831013240 69 304 1.0 2.0 0.00 0.00 0.00 74 1017.9
20260831012737 69 304 1.0 2.0 0.00 0.00 0.00 74 1017.9
20260831012238 69 304 1.0 2.0 0.00 0.00 0.00 74 1017.9
20260831011737 69 304 1.0 3.0 0.00 0.00 0.00 74 1017.9
20260831011235 69 304 1.0 3.0 0.00 0.00 0.00 74 1017.9
20260831010733 69 304 1.0 2.0 0.00 0.00 0.00 74 1017.8
20260831010233 69 304 1.0 2.0 0.00 0.00 0.00 75 1017.9
20260831005739 69 304 1.0 2.0 0.00 0.00 0.00 75 1017.9
20260831005234 70 304 1.0 2.0 0.00 0.00 0.00 76 1017.9
20260831004734 70 304 1.0 2.0 0.00 0.00 0.00 77 1017.9
20260831004235 70 304 1.0 2.0 0.00 0.00 0.00 77 1017.9
20260831003734 70 304 2.0 3.0 0.00 0.00 0.00 78 1017.9
20260831003233 70 304 1.0 3.0 0.00 0.00 0.00 77 1018.0
20260831002733 70 304 1.0 2.0 0.00 0.00 0.00 77 1018.0
20260831002512 70 304 1.0 3.0 0.00 0.00 0.00 77 1017.9
20260831001734 70 304 1.0 3.0 0.00 0.00 0.00 77 1017.9
20260831001233 70 304 1.0 2.0 0.00 0.00 0.00 77 1017.9
20260831000737 70 304 1.0 3.0 0.00 0.00 0.00 76 1017.9
20260831000237 70 304 1.0 3.0 0.00 0.00 0.00 76 1017.8
20260830235733 70 304 2.0 3.0 0.00 0.00 0.00 75 1017.9
20260830235538 70 304 2.0 3.0 0.00 0.00 0.00 75 1017.9
20260830235013 70 304 1.0 2.0 0.00 0.00 0.00 75 1017.8
20260830234234 70 304 1.0 2.0 0.00 0.00 0.00 75 1017.8
20260830233734 70 304 1.0 2.0 0.00 0.00 0.00 75 1017.8
20260830233234 70 304 1.0 2.0 0.00 0.00 0.00 75 1017.8
20260830232734 70 304 1.0 2.0 0.00 0.00 0.00 75 1017.8
20260830232232 70 304 1.0 2.0 0.00 0.00 0.00 75 1017.8
20260830231742 70 304 1.0 2.0 0.00 0.00 0.00 76 1017.8
20260830231232 70 304 1.0 2.0 0.00 0.00 0.00 76 1017.8
20260830230733 70 304 1.0 2.0 0.00 0.00 0.00 76 1017.9
20260830230234 70 304 1.0 3.0 0.00 0.00 0.00 76 1018.0
20260830225811 70 304 2.0 2.0 0.00 0.00 0.00 76 1018.0
20260830225755 70 304 2.0 3.0 0.00 0.00 0.00 75 1018.0
20260830224733 70 304 1.0 2.0 0.00 0.00 0.00 76 1018.0
20260830224232 70 304 1.0 2.0 0.00 0.00 0.00 75 1018.0
20260830223733 70 304 1.0 2.0 0.00 0.00 0.00 75 1018.0
20260830223240 70 304 1.0 2.0 0.00 0.00 0.00 75 1017.9
20260830222735 70 304 1.0 2.0 0.00 0.00 0.00 75 1017.9
20260830222235 70 304 1.0 2.0 0.00 0.00 0.00 75 1017.9
20260830221736 70 304 1.0 2.0 0.00 0.00 0.00 75 1017.9
20260830221234 70 304 1.0 2.0 0.00 0.00 0.00 75 1017.8
20260830220735 70 304 1.0 2.0 0.00 0.00 0.00 75 1017.8
20260830220235 70 304 1.0 3.0 0.00 0.00 0.00 76 1017.8
20260830215735 70 304 1.0 3.0 0.00 0.00 0.00 76 1017.9
20260830215237 70 304 1.0 2.0 0.00 0.00 0.00 77 1017.8
20260830214734 70 304 1.0 2.0 0.00 0.00 0.00 76 1017.8
20260830214241 70 304 1.0 2.0 0.00 0.00 0.00 77 1017.8
20260830213733 70 304 1.0 3.0 0.00 0.00 0.00 77 1017.8
20260830213234 70 304 1.0 3.0 0.00 0.00 0.00 77 1017.8
20260830212733 70 304 1.0 3.0 0.00 0.00 0.00 77 1017.8
20260830212237 71 304 1.0 2.0 0.00 0.00 0.00 78 1017.8
20260830211740 71 304 1.0 2.0 0.00 0.00 0.00 78 1017.8
20260830211235 71 304 1.0 2.0 0.00 0.00 0.00 78 1017.7
20260830210732 71 304 1.0 2.0 0.00 0.00 0.00 79 1017.7
20260830210232 71 304 2.0 3.0 0.00 0.00 0.00 79 1017.7
20260830210024 71 304 2.0 3.0 0.00 0.00 0.00 79 1017.7
20260830205229 71 304 2.0 3.0 0.00 0.00 0.00 78 1017.6
20260830204725 71 304 2.0 3.0 0.00 0.00 0.00 78 1017.6
20260830204225 71 304 2.0 3.0 0.00 0.00 0.00 78 1017.7
20260830203727 71 304 2.0 3.0 0.00 0.00 0.00 77 1017.7
20260830203235 71 304 1.0 2.0 0.00 0.00 0.00 77 1017.7
20260830203016 71 304 1.0 2.0 0.00 0.00 0.00 77 1017.7
20260830202223 72 304 1.0 2.0 0.00 0.00 0.00 76 1017.7
20260830201738 72 304 1.0 2.0 0.00 0.00 0.00 75 1017.6
20260830201224 72 304 1.0 2.0 0.00 0.00 0.00 75 1017.6
20260830200724 72 304 1.0 2.0 0.00 0.00 0.00 75 1017.5
20260830200224 72 304 1.0 2.0 0.00 0.00 0.00 74 1017.5
20260830195724 72 304 1.0 2.0 0.00 0.00 0.00 74 1017.5
20260830195224 72 304 1.0 2.0 0.00 0.00 0.00 75 1017.5
20260830194723 72 304 1.0 2.0 0.00 0.00 0.00 75 1017.4
20260830194514 72 304 1.0 2.0 0.00 0.00 0.00 75 1017.4
20260830193717 72 304 2.0 2.0 0.00 0.00 0.00 75 1017.4
20260830193501 72 304 1.0 2.0 0.00 0.00 0.00 75 1017.3
20260830192715 72 304 1.0 2.0 0.00 0.00 0.00 75 1017.4
20260830192217 72 304 2.0 2.0 0.00 0.00 0.00 74 1017.2
20260830191717 72 304 1.0 2.0 0.00 0.00 0.00 73 1017.2
20260830191211 72 304 1.0 2.0 0.00 0.00 0.00 73 1017.2
20260830190711 72 304 1.0 2.0 0.00 0.00 0.00 73 1017.2
20260830190210 72 304 1.0 2.0 0.00 0.00 0.00 74 1017.2
20260830185710 72 304 1.0 2.0 0.00 0.00 0.00 75 1017.2
20260830185248 72 304 1.0 2.0 0.00 0.00 0.00 73 1017.1
20260830185225 72 304 1.0 2.0 0.00 0.00 0.00 74 1017.1
20260830184206 72 304 1.0 2.0 0.00 0.00 0.00 74 1017.0
20260830183706 72 304 1.0 2.0 0.00 0.00 0.00 73 1017.0
20260830183206 73 304 1.0 2.0 0.00 0.00 0.00 75 1017.0
20260830182711 73 304 1.0 2.0 0.00 0.00 0.00 76 1016.9
20260830182205 73 304 1.0 2.0 0.00 0.00 0.00 76 1016.9
20260830181706 73 304 1.0 2.0 0.00 0.00 0.00 75 1016.7
20260830181206 73 304 1.0 2.0 0.00 0.00 0.00 76 1016.9
20260830180704 73 304 1.0 2.0 0.00 0.00 0.00 76 1016.9
20260830180207 73 304 1.0 2.0 0.00 0.00 0.00 76 1016.7
20260830175704 73 304 1.0 2.0 0.00 0.00 0.00 76 1016.7
20260830175205 73 304 1.0 2.0 0.00 0.00 0.00 76 1016.7
20260830174706 74 304 1.0 2.0 0.00 0.00 0.00 75 1016.7
20260830174449 74 304 1.0 2.0 0.00 0.00 0.00 75 1016.7
20260830173704 74 304 1.0 2.0 0.00 0.00 0.00 76 1016.7
20260830173205 74 304 1.0 3.0 0.00 0.00 0.00 77 1016.6
20260830172943 74 304 1.0 3.0 0.00 0.00 0.00 77 1016.6